Tracking 35331 objects as of 16-Sep-2026
HD Live streaming from Space Station
objects crossing your sky now

COSMOS 2027


COSMOS 2027 is no longer on orbit


NORAD ID: 20064
Int'l Code: 1989-045A
Launch date: June 14, 1989
Source: Commonwealth of Independent States (former USSR) (CIS)
Launch site: PLESETSK MISSILE AND SPACE COMPLEX (PKMTR)
Decay date: 1992-04-14
Your satellite tracking list
Your tracking list is empty




NASA's NSSDC Master Catalog

Two Line Element Set (TLE):
1 20064U 89045  A 92105.39032377  .13394438 +35184-4 +18336-3 0  9993
2 20064 065.7922 318.3753 0009557 263.5791 096.6232 16.48571822159797
Source of the keplerian elements: AFSPC